Погода в Чубковичах

Россия / Брянская область     52°31′48″N   32°36′00″E
темп.,
°C
ветер,
м/с
пор.,
м/с
влажн.,
%
обл.,
%
осадки,
мм/ч
давл.,
гПа
погр.,
м
8 августа, пн
пн800:00+16с479598 0.0 1020351
03:00+16с3594100 0.0 1020270
06:00+16с3595100 0.0 1020276
09:00+17ссв349162 0.8 1021372
12:00+21с327697 0.1 1021761
15:00+21ссз3272100 0.3 1021778
18:00+20ссз457659 1.0 1021560
21:00+17ссз3785100 1.0 1021151
9 августа, вт
вт900:00+16ссз368992 0.0 102195
03:00+14ссз3690100 0.0 1021104
06:00+15ссз3682100 0.0 1021131
09:00+19с4572100 0.0 1021370
12:00+22с4561100 0.0 10211095
15:00+24с4450100 0.0 10201847
18:00+21ссв5866100 0.0 1020346
21:00+18с3573100 0.0 1021105
10 августа, ср
ср1000:00+17с3671100 0.0 1021131
03:00+15ссв3673100 0.0 1021109
06:00+15св358826 0.0 1021123
09:00+18св5868100 0.0 1022530
12:00+22св675788 0.0 10211418
15:00+23св674993 0.0 10201910
18:00+22св5757100 0.0 10201167
21:00+18ссв397683 0.0 1021199
11 августа, чт
чт1100:00+16св4128135 0.0 1021270
03:00+16св5138073 0.0 1021360
06:00+15св6147682 0.0 1022354
09:00+19всв812666 0.0 1022541
12:00+23всв795246 0.0 1022934
15:00+25всв784830 0.0 10221189
18:00+25всв58563 0.0 10221035
21:00+19св49761 0.0 1023153
12 августа, пт
пт1200:00+16св49761 0.0 1024151
03:00+15св49750 0.0 1024155
06:00+14св410761 0.0 1025190
09:00+20всв586012 0.0 1025349
12:00+25всв56490 0.0 1024769
15:00+27всв56420 0.0 1023990
18:00+25св46501 0.0 1022723
21:00+19св47645 0.0 102398